{"data":{"norad_id":52904,"epoch":"2026-05-25T02:28:00.160032Z","epoch_age_seconds":66184,"freshness":"FRESH","line1":"1 52904U 22067B   26145.10277963 -.00000244  00000+0  00000+0 0  9999","line2":"2 52904   0.0349  16.4521 0001886 355.2849 359.4577  1.00271051 14413","mean_motion":1.00271051,"eccentricity":0.0001886,"inclination_deg":0.0349,"raan_deg":16.4521,"arg_perigee_deg":355.2849,"mean_anomaly_deg":359.4577,"bstar":0,"rev_number":1441,"period_min":1436.1074164865,"perigee_km":35778.848422035,"apogee_km":35794.753036547,"semimajor_km":42164.937729291,"source":"CELESTRAK","updated_at":"2026-05-25T13:38:14.108520Z"}}